Location: Ash Observatory
(39.7321°N, 75.2004°W)
Time: 10:32:39
(UTC-04:00)

Envisat - Visible Passes

Search period start: 18 August 2018 00:00
Search period end: 28 August 2018 00:00
Orbit: 764 x 766 km, 98.2° (Epoch: 18 August)

Date Brightness Start Highest point End Pass type
(mag) Time Alt. Az. Time Alt. Az. Time Alt. Az.
18 Aug 5.8 21:34:21 10° WSW 21:36:54 14° W 21:39:27 10° WNW visible
19 Aug 4.8 20:55:22 10° SSW 20:59:50 31° W 21:04:21 10° NW visible
20 Aug 3.3 20:17:56 10° S 20:22:59 72° WSW 20:28:04 10° NNW visible
21 Aug 5.6 21:22:15 10° SW 21:25:36 18° W 21:29:00 10° NW visible
22 Aug 4.4 20:43:53 10° SSW 20:48:36 40° W 20:53:23 10° NNW visible
23 Aug 3.1 20:06:44 10° SSE 20:11:49 90° ENE 20:16:55 10° NNW visible
24 Aug 5.3 21:10:24 10° SW 21:14:20 23° W 21:18:18 10° NW visible
25 Aug 3.9 20:32:29 10° S 20:37:24 51° W 20:42:21 10° NNW visible
26 Aug 5.9 21:38:06 10° WSW 21:40:10 12° W 21:42:15 10° WNW visible
27 Aug 5.0 20:58:45 10° SSW 21:03:05 28° W 21:07:28 10° NW visible
